Temperature
15 15 15 15 15 16 16 16 16 16 16 16 16 16 16 16 16 16 15 15 15 15 15 15 15 15 15 15 15 14 14 14 14 14 14 14 14 14 14 13 13 13 13
16 15 15 15 15 16 16 16 16 16 16 16 16 16 16 16 15 15 15 15 15 15 15 15 15 15 15 15 15 14 14 14 14 14 14 14 13 13 13 13 13 13 13
16 15 15 15 15 15 15 15 16 16 15 16 16 16 16 15 15 15 15 15 15 15 15 15 15 14 14 15 15 15 14 14 14 14 14 14 13 13 13 13 13 13 13
16 15 15 15 15 15 15 15 15 15 15 15 15 15 15 15 15 15 15 15 15 15 15 15 14 14 14 14 15 14 14 14 14 14 14 14 13 13 13 13 13 13 12
15 15 15 15 15 15 15 15 15 15 15 15 15 15 15 15 15 15 15 15 15 15 15 15 15 14 14 14 14 14 14 14 14 14 14 13 13 13 12 12 12 12 12
15 15 15 15 15 15 15 15 15 15 15 15 15 15 15 15 15 15 15 15 15 14 14 14 14 14 14 14 14 14 14 14 14 14 14 13 13 12 12 12 12 12 12
15 15 15 15 15 14 15 15 15 15 15 15 15 15 15 15 15 15 15 14 14 14 14 14 14 14 14 14 14 14 14 14 14 14 13 13 12 12 12 12 11 11 11
14 14 14 14 14 14 14 14 14 14 15 15 15 14 14 14 14 14 14 14 14 14 14 14 14 14 14 14 14 14 14 14 13 13 13 13 12 12 12 11 11 11 11
14 14 14 14 14 14 14 14 14 14 14 14 14 14 14 14 14 14 14 14 14 14 14 14 14 14 13 13 13 13 13 13 13 13 13 13 12 11 11 11 11 11 11
13 13 13 13 13 13 13 14 14 14 14 14 14 14 14 14 14 14 14 14 14 14 14 13 13 13 13 13 13 13 13 13 13 13 13 12 12 11 11 11 11 11 10
13 13 13 13 13 13 13 13 13 13 13 13 13 13 13 13 13 14 13 13 13 13 13 13 13 13 13 13 13 13 13 13 12 12 12 12 11 11 11 11 10 10 10
13 13 13 13 13 13 13 13 13 13 13 13 13 13 13 13 13 13 13 13 13 13 13 13 13 13 13 13 13 12 12 12 12 12 12 11 11 11 11 10 10 10 10
12 12 12 12 13 12 13 13 13 13 13 13 13 13 13 13 13 13 13 13 13 13 13 13 13 13 13 12 12 12 12 12 12 12 11 11 11 11 10 10 10 10 10
12 12 12 12 12 12 12 12 12 12 12 12 12 12 12 12 12 12 12 12 12 12 12 12 12 12 12 12 12 12 12 12 11 11 11 11 11 10 10 10 9 9 9
11 12 12 12 12 12 12 12 12 12 12 12 12 12 12 12 12 12 12 12 12 12 12 12 12 12 12 12 12 11 11 11 11 11 11 11 10 10 10 9 9 9 9
11 11 11 11 11 11 11 11 11 11 12 12 12 12 12 12 12 12 12 12 11 11 11 11 11 11 11 11 11 11 11 11 11 11 10 10 10 10 10 9 9 9 9
11 11 11 11 11 11 11 11 11 11 11 11 11 11 11 11 11 11 11 11 11 11 11 11 11 11 11 11 11 11 11 11 10 10 10 10 10 10 10 9 9 9 9
10 10 10 10 10 11 11 11 11 11 11 11 11 11 11 11 11 11 11 11 11 10 10 10 10 10 10 10 10 10 10 10 10 10 10 10 10 9 9 9 9 9 9
10 10 10 10 10 10 10 10 10 10 10 10 10 10 11 10 10 10 10 10 10 10 10 10 10 10 10 10 10 10 10 9 10 9 9 9 9 9 9 9 9 9 8
9 9 10 10 10 10 10 10 10 10 10 10 10 10 10 10 10 10 10 9 9 9 9 9 9 9 9 9 9 9 9 9 9 9 9 9 9 9 8 8 8 8 8
9 9 9 9 9 9 9 9 9 9 9 10 10 9 9 9 9 9 9 9 9 9 9 9 9 9 8 8 8 8 8 8 8 8 8 8 8 8 8 8 8 8 8
9 9 9 9 9 9 9 9 9 9 9 9 9 9 9 9 9 9 9 9 8 8 8 8 8 8 8 7 7 7 7 7 7 8 7 7 7 7 7 7 7 7 7
8 8 8 8 8 8 8 8 8 9 9 9 9 9 9 9 8 8 8 8 8 8 8 8 8 8 7 7 7 6 6 6 6 7 7 7 7 7 7 7 7 7 7
7 8 8 8 8 8 7 8 8 8 8 8 8 8 8 8 8 8 8 8 8 8 8 8 7 7 7 7 7 6 6 6 6 6 6 6 6 7 7 6 6 6 6
7 7 7 7 7 7 7 7 7 7 7 7 7 8 8 8 7 7 7 7 7 7 7 7 7 7 6 6 6 6 6 6 6 6 6 6 6 6 6 6 6 6 6
6 6 6 6 6 6 6 6 6 6 7 7 7 7 7 7 7 7 7 7 7 7 7 7 7 6 6 6 6 6 6 6 6 5 5 5 5 6 5 5 5 5 5
Wind_Speed
1 2 4 8 9 9 10 11 11 11 12 12 12 13 13 12 12 12 12 12 12 13 13 13 13 13 14 14 14 14 14 14 13 13 13 13 12 12 12 12 12 11 11
3 2 5 9 10 9 10 10 11 11 11 12 12 12 12 12 12 12 12 12 12 12 12 13 13 13 13 13 13 13 13 13 13 13 12 11 11 11 11 11 10 9 10
4 3 6 9 10 10 10 10 10 10 11 12 12 11 11 12 11 11 12 12 11 11 12 12 12 12 13 13 13 12 12 12 12 12 11 9 8 10 10 10 10 10 9
4 4 5 9 9 10 10 10 9 10 11 11 11 11 11 11 11 11 11 11 11 11 11 11 11 12 13 12 12 12 12 12 12 11 9 8 7 8 9 9 9 9 9
3 4 5 8 9 9 10 10 9 9 10 10 10 10 10 10 10 10 10 11 11 11 11 11 11 12 12 12 11 11 11 11 11 10 8 7 6 7 8 8 8 8 8
4 4 5 7 8 8 9 9 9 8 9 10 9 9 9 10 9 9 9 10 10 10 10 11 11 11 11 11 11 11 10 10 10 9 7 6 5 6 7 7 7 7 7
4 4 5 7 7 8 9 9 8 8 8 9 9 9 8 9 9 9 9 9 9 9 10 10 11 11 10 10 10 10 9 9 9 7 6 5 4 5 6 6 6 6 6
4 4 4 6 7 7 8 9 8 8 7 8 9 8 8 8 8 8 8 9 8 8 9 9 10 10 10 10 10 9 8 8 7 6 4 4 4 5 5 5 5 5 5
4 4 4 4 5 6 6 7 8 7 7 8 8 8 8 8 8 8 8 8 8 8 8 8 9 9 8 8 8 8 8 7 6 4 3 2 3 4 4 4 3 3 4
4 4 4 5 5 5 5 5 6 6 6 6 7 7 7 7 7 7 7 7 8 8 8 7 8 8 7 7 7 7 7 6 5 3 2 1 2 3 3 3 3 3 3
3 3 3 4 4 4 4 4 5 6 5 5 6 7 6 5 5 5 6 6 8 8 8 7 7 7 7 6 6 6 6 5 4 2 0 1 1 1 1 2 2 2 2
2 2 2 2 3 4 3 3 3 4 4 5 5 6 5 5 5 5 6 6 7 7 7 7 7 7 6 5 5 5 5 4 3 1 0 1 1 1 0 0 1 1 2
2 1 1 1 2 3 3 2 3 3 3 4 5 5 5 5 5 4 4 5 6 7 6 5 6 5 5 4 4 3 3 3 2 0 1 1 2 2 2 2 2 2 2
1 1 0 1 2 2 2 1 2 2 2 3 4 5 5 3 3 3 3 3 4 4 4 4 4 4 4 4 3 3 2 2 1 0 2 2 2 3 3 3 3 3 4
2 1 1 1 1 1 2 1 1 1 2 3 4 5 5 3 2 2 2 3 3 3 4 3 3 3 3 3 2 2 1 1 1 1 1 2 3 4 4 5 5 5 5
3 2 2 2 1 1 1 1 1 1 2 3 3 4 5 4 3 3 2 2 2 3 3 2 2 2 1 2 1 1 1 1 1 1 2 3 4 4 5 5 6 6 6
3 2 2 2 1 1 1 2 2 2 2 3 3 4 5 5 4 3 2 2 2 3 3 2 2 2 1 1 0 0 1 1 1 1 2 2 4 5 5 5 6 7 7
3 3 3 2 1 1 1 2 1 2 3 2 3 4 4 5 5 4 3 2 2 3 3 2 1 1 0 0 1 1 1 1 1 1 2 2 3 4 5 6 6 7 7
3 3 2 1 2 2 2 2 1 2 2 2 3 3 4 4 5 4 3 3 3 2 3 2 1 1 1 0 1 1 1 1 1 1 2 2 2 3 3 4 5 6 7
2 2 1 1 2 2 2 1 1 2 1 2 3 3 4 4 5 4 3 3 3 2 2 2 2 1 1 0 1 1 1 2 1 1 2 2 2 2 3 3 3 4 6
0 0 1 1 1 2 2 2 2 3 2 2 3 3 4 4 4 4 3 3 3 3 3 3 3 2 1 1 1 1 2 2 2 2 1 1 2 2 2 3 3 3 4
1 1 1 2 2 2 2 2 2 2 2 2 2 3 4 4 4 4 4 4 3 3 3 4 3 2 1 1 1 0 1 2 2 2 2 3 3 2 2 3 3 3 4
2 2 2 2 2 2 2 2 2 1 1 2 3 3 3 4 4 5 5 4 4 4 4 4 4 3 3 2 1 2 1 3 2 2 3 3 3 2 2 2 3 4 4
3 3 2 2 2 2 2 2 4 4 4 4 3 3 3 4 5 5 5 5 4 4 4 4 3 3 4 3 2 2 2 2 2 2 2 2 3 3 3 3 3 3 4
4 2 2 2 2 2 2 3 4 4 4 3 2 4 4 4 4 4 5 4 4 4 4 4 3 4 4 4 3 2 2 2 2 2 4 3 3 3 3 3 2 3 4
4 2 1 2 3 2 2 3 4 5 4 4 3 4 4 3 3 4 4 4 4 4 4 4 4 5 5 4 4 3 3 3 3 3 4 4 4 3 3 3 2 3 4
Wind_Direction
223 254 183 148 136 126 125 127 124 122 122 123 124 123 120 119 117 114 113 111 110 112 113 110 109 107 105 102 98 95 92 88 85 81 79 78 79 80 78 74 71 69 74
165 183 163 146 137 131 123 122 127 125 124 125 125 124 123 121 119 116 116 115 112 112 115 114 113 112 109 105 101 98 94 91 86 80 76 73 76 81 78 76 74 71 69
134 148 145 138 138 135 127 120 122 127 127 127 126 126 126 125 123 120 118 119 116 114 117 119 117 116 113 109 105 101 97 93 88 81 73 64 68 77 78 77 74 70 69
122 117 131 134 133 135 130 124 120 121 125 127 127 127 127 128 127 124 121 122 120 117 117 122 120 119 116 113 109 105 100 95 89 80 68 61 64 78 81 78 72 69 67
104 102 114 129 132 133 133 128 126 121 125 125 125 129 128 129 130 128 125 125 124 122 120 118 119 120 120 118 114 109 104 99 91 79 68 61 61 80 82 78 73 71 69
101 94 115 119 131 129 131 132 132 124 129 130 126 126 130 129 130 129 127 128 129 129 126 121 117 118 119 119 116 112 106 101 91 79 69 62 62 80 82 80 75 73 69
110 100 119 123 121 126 129 132 135 131 135 135 133 129 127 131 131 129 129 132 133 133 131 129 125 120 123 123 119 115 110 104 95 84 74 64 68 77 84 83 78 73 64
113 103 117 127 119 119 127 133 132 132 133 137 135 132 131 130 135 134 131 136 138 138 137 135 131 127 123 127 125 119 114 110 101 92 81 71 79 79 81 78 72 67 61
94 90 82 100 111 115 110 133 133 134 131 134 133 130 131 131 129 133 133 136 135 138 141 141 138 132 128 127 128 125 120 114 104 96 91 97 99 90 81 75 70 62 52
79 81 78 77 84 93 98 117 128 132 132 133 131 124 127 132 132 130 135 142 141 137 133 135 135 132 130 127 128 128 123 117 107 98 91 120 111 101 87 77 63 53 43
73 70 71 73 71 79 88 100 120 127 122 123 124 113 111 110 116 123 126 137 142 140 134 128 125 125 121 120 123 125 118 113 113 96 77 143 138 109 82 68 50 33 19
102 93 78 78 81 79 87 94 93 111 112 107 108 108 105 102 105 111 117 121 129 131 130 126 119 113 108 105 112 117 113 115 114 97 263 191 208 236 309 0 346 339 340
162 134 111 87 83 80 71 91 87 93 99 105 107 105 104 100 99 99 104 115 113 113 111 111 102 99 97 101 101 104 116 119 123 144 263 255 258 269 283 290 295 297 304
149 173 138 86 74 67 77 91 106 94 107 111 117 114 109 103 96 98 101 103 103 110 107 103 100 95 94 94 105 105 114 121 132 196 266 257 268 277 281 287 289 287 291
198 208 213 151 116 63 77 95 125 122 143 133 126 129 125 121 123 110 114 101 100 107 107 107 105 100 98 101 113 121 122 159 186 211 276 278 282 285 282 286 286 288 288
214 217 221 181 163 106 90 185 164 157 150 141 138 142 141 134 134 131 132 125 119 114 118 122 128 125 124 123 124 136 160 191 201 216 253 271 276 281 284 284 287 286 288
219 219 216 198 171 137 160 198 174 172 155 161 158 156 152 146 143 140 148 155 151 128 115 113 100 105 113 112 219 230 181 198 207 225 250 260 263 271 278 286 292 290 288
222 218 225 217 177 182 193 198 177 176 170 177 166 162 161 154 153 155 164 175 162 140 132 140 128 112 135 202 274 286 260 214 231 228 234 246 255 266 274 279 285 289 291
219 218 220 207 192 201 199 185 160 162 170 183 175 174 175 164 164 168 173 178 164 154 157 160 154 160 171 272 262 270 270 266 257 241 237 241 243 258 269 276 281 286 291
225 218 189 219 199 192 183 172 144 158 178 185 186 188 181 178 175 170 172 173 170 165 171 168 166 149 160 216 293 305 291 277 259 253 252 256 252 251 263 273 284 287 295
265 129 162 213 216 187 186 185 182 194 200 196 194 188 186 181 179 175 173 175 183 185 189 178 171 155 123 92 33 333 311 280 261 248 248 262 262 255 261 271 269 279 291
260 248 226 225 235 220 209 190 179 181 196 205 196 193 190 187 186 185 179 186 193 194 190 185 176 171 173 151 151 337 307 304 274 250 251 241 248 244 254 264 260 275 285
298 264 255 248 249 241 215 162 140 142 185 207 203 195 200 196 196 200 197 194 194 192 198 199 193 189 200 211 167 171 200 242 290 268 242 243 247 247 255 269 271 278 279
294 283 267 253 245 243 210 192 193 201 211 221 214 205 205 200 202 203 197 195 194 197 202 208 209 203 195 213 222 213 220 217 231 283 282 261 255 250 254 270 272 271 278
312 301 278 255 245 237 217 204 201 213 219 219 208 199 203 202 204 200 199 197 199 205 207 211 214 208 209 214 215 213 225 255 237 233 273 282 277 254 250 261 269 272 274
333 326 305 267 263 248 223 212 207 209 216 217 220 210 209 207 201 199 199 199 203 206 211 215 217 215 218 218 220 218 214 223 228 222 248 274 277 270 255 251 257 271 273
Height
1495 1497 1499 1501 1502 1503 1505 1506 1507 1508 1510 1511 1512 1513 1514 1515 1515 1516 1517 1518 1519 1519 1520 1520 1521 1522 1523 1523 1523 1524 1524 1524 1524 1525 1525 1525 1525 1525 1525 1525 1525 1525 1525
1494 1496 1498 1500 1502 1503 1504 1505 1507 1508 1509 1511 1512 1513 1514 1515 1516 1517 1517 1518 1519 1520 1520 1521 1522 1522 1523 1524 1524 1524 1525 1525 1525 1525 1526 1526 1526 1526 1526 1526 1526 1526 1526
1494 1496 1498 1500 1502 1503 1504 1505 1506 1508 1509 1510 1512 1513 1514 1515 1516 1517 1518 1518 1519 1520 1521 1521 1522 1523 1523 1524 1524 1525 1525 1526 1526 1526 1526 1526 1526 1526 1526 1526 1526 1526 1526
1494 1495 1497 1499 1501 1502 1504 1505 1506 1508 1509 1510 1512 1513 1514 1515 1516 1517 1518 1518 1519 1520 1521 1521 1522 1523 1524 1524 1525 1525 1526 1526 1526 1527 1527 1527 1527 1527 1527 1527 1527 1526 1526
1493 1495 1496 1499 1500 1502 1503 1505 1506 1507 1509 1510 1511 1513 1514 1515 1516 1517 1518 1519 1519 1520 1521 1522 1523 1523 1524 1525 1525 1526 1526 1526 1527 1527 1527 1527 1527 1527 1527 1527 1527 1527 1526
1492 1494 1496 1498 1499 1501 1502 1504 1505 1507 1508 1510 1511 1512 1514 1515 1515 1516 1518 1519 1520 1520 1521 1522 1523 1523 1524 1525 1526 1526 1526 1527 1527 1527 1527 1527 1527 1527 1527 1527 1527 1527 1527
1492 1494 1495 1497 1498 1500 1502 1503 1505 1506 1508 1509 1510 1512 1513 1514 1515 1516 1517 1518 1520 1520 1521 1522 1523 1524 1524 1525 1525 1526 1526 1526 1527 1527 1527 1527 1527 1527 1527 1527 1527 1526 1526
1491 1493 1495 1496 1498 1499 1500 1502 1504 1505 1507 1508 1510 1511 1513 1514 1515 1516 1517 1518 1519 1520 1521 1522 1523 1523 1524 1525 1525 1526 1526 1527 1527 1526 1526 1526 1527 1527 1526 1526 1526 1526 1526
1491 1492 1494 1495 1497 1498 1499 1501 1502 1504 1505 1507 1509 1510 1512 1513 1514 1515 1516 1518 1519 1520 1520 1521 1522 1523 1524 1524 1525 1525 1526 1526 1526 1526 1526 1526 1526 1526 1526 1526 1525 1525 1525
1490 1491 1493 1494 1495 1497 1498 1499 1501 1502 1504 1506 1507 1509 1510 1512 1513 1514 1515 1517 1518 1519 1520 1521 1522 1522 1523 1524 1524 1525 1525 1525 1526 1526 1526 1526 1526 1526 1525 1525 1524 1524 1524
1488 1490 1491 1493 1494 1495 1497 1498 1500 1501 1503 1504 1506 1508 1509 1511 1512 1513 1514 1516 1517 1518 1519 1520 1521 1521 1522 1523 1523 1524 1524 1524 1525 1525 1525 1525 1525 1525 1524 1524 1523 1523 1523
1486 1488 1490 1491 1492 1493 1495 1496 1497 1499 1501 1503 1504 1506 1508 1509 1511 1512 1513 1514 1515 1516 1517 1518 1519 1520 1521 1521 1522 1523 1523 1523 1523 1523 1524 1524 1524 1524 1523 1523 1522 1522 1521
1485 1486 1488 1489 1491 1492 1493 1494 1496 1498 1499 1501 1503 1505 1506 1508 1509 1511 1512 1513 1514 1515 1516 1517 1518 1518 1519 1520 1521 1521 1521 1522 1522 1522 1522 1522 1522 1522 1522 1521 1521 1520 1520
1484 1485 1486 1488 1489 1490 1492 1493 1493 1495 1497 1499 1501 1503 1504 1506 1507 1509 1510 1511 1512 1513 1514 1515 1516 1516 1517 1518 1519 1519 1520 1520 1520 1520 1520 1521 1520 1520 1520 1520 1519 1519 1518
1482 1483 1484 1486 1487 1488 1490 1491 1492 1493 1495 1497 1499 1500 1502 1504 1505 1507 1508 1509 1510 1511 1512 1513 1514 1515 1515 1516 1517 1517 1517 1518 1518 1518 1518 1518 1518 1518 1517 1517 1517 1516 1516
1480 1481 1483 1484 1485 1486 1488 1489 1490 1491 1493 1495 1497 1498 1500 1502 1503 1505 1506 1507 1508 1509 1510 1511 1512 1513 1513 1514 1514 1515 1515 1515 1515 1515 1516 1516 1516 1515 1515 1514 1514 1514 1513
1478 1479 1481 1482 1483 1484 1486 1487 1488 1489 1491 1493 1494 1496 1497 1499 1501 1502 1503 1504 1505 1506 1507 1509 1509 1510 1511 1511 1511 1512 1512 1512 1513 1513 1513 1513 1513 1512 1512 1511 1511 1511 1510
1476 1477 1478 1479 1480 1481 1483 1484 1485 1487 1488 1490 1492 1493 1495 1496 1498 1499 1500 1501 1502 1504 1505 1506 1506 1507 1508 1508 1508 1508 1509 1509 1509 1509 1509 1509 1509 1509 1509 1508 1508 1507 1507
1473 1474 1475 1476 1477 1479 1480 1481 1482 1484 1486 1487 1489 1491 1492 1493 1495 1496 1497 1498 1499 1500 1501 1502 1503 1504 1504 1504 1504 1505 1505 1505 1505 1506 1506 1506 1506 1506 1505 1505 1504 1504 1503
1470 1471 1471 1473 1474 1476 1477 1478 1479 1481 1483 1484 1486 1487 1489 1490 1492 1493 1494 1495 1496 1497 1498 1499 1500 1501 1501 1501 1501 1501 1501 1501 1501 1502 1502 1502 1502 1502 1502 1501 1500 1500 1499
1466 1467 1468 1470 1471 1472 1473 1474 1475 1477 1479 1481 1483 1484 1485 1487 1488 1490 1490 1491 1493 1493 1494 1495 1496 1497 1497 1498 1497 1497 1497 1497 1497 1498 1498 1498 1498 1498 1498 1497 1496 1496 1495
1462 1463 1465 1467 1468 1469 1470 1471 1473 1474 1475 1477 1479 1480 1482 1483 1484 1486 1486 1487 1489 1490 1491 1491 1492 1492 1493 1494 1494 1493 1493 1493 1492 1493 1493 1494 1494 1494 1494 1493 1493 1492 1491
1458 1460 1461 1463 1465 1465 1466 1467 1469 1470 1471 1473 1474 1476 1478 1479 1481 1482 1483 1484 1485 1486 1486 1487 1488 1489 1489 1490 1491 1492 1491 1489 1488 1488 1488 1489 1489 1489 1489 1489 1488 1488 1487
1458 1458 1459 1460 1461 1462 1463 1464 1465 1466 1467 1468 1470 1472 1474 1476 1477 1478 1479 1480 1481 1482 1483 1483 1484 1485 1486 1486 1487 1487 1488 1487 1486 1483 1483 1484 1484 1484 1484 1484 1484 1483 1483
1456 1456 1457 1458 1458 1459 1460 1460 1461 1462 1463 1464 1466 1467 1469 1471 1473 1474 1475 1476 1477 1478 1479 1480 1480 1481 1482 1482 1482 1482 1483 1483 1483 1482 1479 1479 1479 1479 1479 1479 1479 1479 1478
1454 1454 1454 1455 1455 1456 1457 1457 1457 1458 1459 1461 1461 1463 1464 1466 1468 1469 1471 1472 1473 1474 1475 1476 1477 1477 1478 1478 1478 1478 1478 1478 1478 1478 1476 1474 1474 1474 1474 1474 1474 1474 1473